Regional Weather Roundup
Issued by NWS

Home | Current Version | Previous Version | Graphics & Text | Print | Product List | Glossary On
Versions: 1 2 3 4 5 6 7 8 9 10 11 12 13 14 15 16 17 18 19 20 21 22 23 24 25 26 27 28 29 30 31 32 33 34 35 36 37 38 39 40 41 42 43 44 45 46 47 48 49 50
000
ASUS45 KCYS 212110
RWRWY

WYOMING REGIONAL WEATHER ROUNDUP
NATIONAL WEATHER SERVICE CHEYENNE WY
200 PM MST SUN JAN 21 2018

NOTE:  "FAIR" INDICATES FEW OR NO CLOUDS BELOW 12,000 FEET
WITH NO SIGNIFICANT WEATHER AND/OR OBSTRUCTIONS TO VISIBILITY.

WYZ001-212200-
YELLOWSTONE NATIONAL PARK

CITY           SKY/WX    TMP DP  RH WIND       PRES   REMARKS
LK YELLOWSTONE   N/A      7   3  84 CALM      30.05R
W YELLOWSTONE  NOT AVBL

$$
WYZ002>013-054>058-071-098>099-212200-
NORTHERN WYOMING

CITY           SKY/WX    TMP DP  RH WIND       PRES   REMARKS
JACKSON        FAIR      26  11  52 CALM      30.07
CODY           FAIR      35  10  35 N7        29.99F WCI  29
GREYBULL       FAIR      32  21  64 SE10      30.04F WCI  24
WORLAND        FAIR      26  21  81 SE7       30.04F WCI  18
SHERIDAN       FAIR      36  19  50 NW5       30.01F WCI  32
BUFFALO        FAIR      31  15  52 N13       29.98F WCI  21
GILLETTE       FAIR      32  23  69 W7        29.99S WCI  26
HULETT         FAIR      32  21  64 N5        29.98F WCI  27
NEWCASTLE      FAIR      30  23  74 NW14      29.96F WCI  20

$$
WYZ014>020-022>026-101>103-212200-
CENTRAL WYOMING

CITY           SKY/WX    TMP DP  RH WIND       PRES   REMARKS
BIG PINEY      FAIR      28   4  35 N14       29.99S WCI  17
PINEDALE       FAIR      27  10  50 NW10G18   29.99R WCI  17
DUBOIS         FAIR      28   5  37 NW3       29.94F
LANDER         FAIR      29  15  56 CALM      30.01S
RIVERTON       FAIR      27  16  63 W3        30.02S
CASPER         CLOUDY    22  16  78 NW5       30.00R WCI  16
DOUGLAS        CLOUDY    25  20  81 NW15      29.98S WCI  13

$$
WYZ021-027>030-104>119-212200-
SOUTHERN WYOMING

CITY           SKY/WX    TMP DP  RH WIND       PRES   REMARKS
EVANSTON       FLURRIES  21  13  71 W6        30.06S WCI  13
FORT BRIDGER   CLOUDY    25  16  68 W12       30.06S WCI  14
ROCK SPRINGS   LGT SNOW  19  15  84 SW10      30.01S FOG     WCI   7
DIXON          FLURRIES  24  14  64 N12       29.98R WCI  13
RAWLINS        LGT SNOW  21  16  81 N12       29.95S WCI   9
SARATOGA       LGT SNOW  21  18  86 N13       29.93R WCI   9
LARAMIE        LGT SNOW  17  15  92 NW22      29.84R VSB 3/4 WCI   0
CHEYENNE       LGT SNOW  20  18  92 N21G31    29.84R VSB 1   WCI   4
TORRINGTON     LGT SNOW  27  25  92 N15G22    29.92R VSB 1   WCI  15

$$



USA.gov is the U.S. government's official web portal to all federal, state and local government web resources and services.